Flag for Brazil Weather past 2 weeks in Porto Alegre, Rio Grande do Sul, Brazil

Now
70 °F

Broken clouds.


Feels Like: 70 °F
Forecast: 58 / 68 °F
Wind: 10 mph from South

Location: Porto Alegre Aero-Porto

Current Time: Oct 1, 2014 at 12:19:42 PM

Latest Report: Oct 1, 2014 at 12:00 PM


Visibility: N/A

Pressure: 30.09 "Hg

Humidity: 60%

Dew point: 55 °F

Location of Porto AlegreLocation

Historic Weather in Porto Alegre — Graph

°F

Porto Alegre temperature yesterday

Maximum temperature yesterday: 70 °F (at 3:00 PM)
Minimum temperature yesterday: 64 °F (at 1:00 AM)
Average temperature yesterday: 66 °F

Past Weeks' High & Low Weather Summary

 TemperatureHumidityPressure
High84 °F (Sep 23, 3:00 PM)100% (Sep 17, 8:00 AM)30.21 "Hg (Sep 17, 8:00 AM)
Low37 °F (Sep 17, 8:00 AM)28% (Sep 30, 7:00 PM)29.71 "Hg (Sep 25, 6:00 PM)
Average66 °F79%29.97 "Hg
* Reported Sep 16 11:00 AM — Oct 1 11:00 AM, Porto Alegre, Weather by CustomWeather, © 2014

Note: Actual official high and low records may vary slightly from our data, if they occured in-between our weather recording intervals... More about our weather records

Advertising

Porto Alegre weather history for previous 24 hours

 ConditionsComfort  
Time TempWeatherWind HumidityBarometerVisibility
11:00 AM
Oct 1
70 °FBroken clouds.10 mph60%30.07 "HgN/A
10:00 AM70 °FPartly sunny.13 mph64%30.07 "HgN/A
9:00 AM66 °FPartly sunny.9 mph78%30.04 "HgN/A
8:00 AM64 °FPartly sunny.14 mph83%30.01 "Hg4 mi
7:00 AM64 °FLight rain. Fog.12 mph94%N/A2 mi
6:00 AM66 °FLight rain. Mostly cloudy.6 mph100%29.95 "Hg3 mi
5:00 AM68 °FMostly cloudy.13 mph94%29.89 "Hg4 mi
4:00 AM66 °FMostly cloudy.6 mph100%29.86 "Hg4 mi
3:00 AM66 °FMostly cloudy.1 mph94%29.83 "Hg4 mi
2:00 AM68 °FMostly cloudy.No wind94%29.83 "Hg5 mi
1:00 AM68 °FLow clouds.5 mph94%29.83 "Hg4 mi
12:00 AM66 °FPassing clouds.5 mph100%29.83 "Hg4 mi
11:00 PM
Sep 30
66 °FMostly cloudy.2 mph100%29.89 "Hg4 mi
10:00 PM66 °FLight rain. Mostly cloudy.6 mph100%29.89 "Hg4 mi
9:00 PM68 °FLight rain. Mostly cloudy.12 mph94%29.86 "Hg4 mi
8:00 PM68 °FLight rain. Overcast.5 mph94%29.92 "Hg4 mi
7:00 PM68 °FLight rain. Overcast.3 mph28%N/A5 mi
6:00 PM70 °FLight rain. Overcast.3 mph88%29.86 "Hg5 mi
5:00 PM70 °FMore clouds than sun.9 mph88%29.83 "Hg5 mi
4:00 PM70 °FCloudy.5 mph88%29.83 "Hg4 mi
3:00 PM70 °FMostly cloudy.10 mph88%29.86 "Hg4 mi
2:00 PM68 °FFog.10 mph94%29.86 "Hg3 mi
1:00 PM68 °FLight rain. Fog.5 mph94%29.92 "Hg3 mi
12:00 PM66 °FFog.9 mph94%29.92 "Hg3 mi
Weather by CustomWeather, © 2014

See weather overviewHow to use our weather pages